Location: *
(50.8160°S, 176.0219°W)
Time: 23:46:21
(UTC+00:00)

Cosmos 1869 - Pass Details

Date: 19 May 2026
Orbit: 441 x 468 km, 82.5° (Epoch: 11 June)

Event Time Altitude Azimuth Distance (km) Brightness Sun altitude
Rises 16:45:55 0° 3° (N) 2,453 6.7 -23.8°
Reaches altitude 10° 16:47:59 10° 7° (N) 1,594 5.8 -23.5°
Maximum altitude 16:51:23 53° 84° (E) 576 3.7 -23.0°
Drops below altitude 10° 16:54:52 10° 161° (SSE) 1,634 5.9 -22.4°
Sets 16:57:00 0° 166° (SSE) 2,524 6.8 -22.1°
